FREGAT DEB, 45829

Orbit data source: Space-Track

FREGAT DEB, 45829 is space debris in LEO originally from a launch on Mon, 18 Jul 2011 UTC launched from the Tyuratam Missile And Space Complex (TTMTR). Debris objects in space refer to the collection of defunct objects orbiting the Earth. Examples of debris include non-operational satellites, rocket bodies, and fragments generated from explosions, collisions, or faulty payload assembly.

Loading next visibility...
Identifier
45829, 2011-037BP
Orbit
LEO
Country
Flag of CISCIS
Related business
Manufacturer
Lavochkin
Mission
Spacecraft
Bus & Motor
Unknown
Mass
Unknown
Launch date (UTC)
2011-07-18 (14 years ago)
Launch vehicle
Unknown
Launch site
Tyuratam Missile And Space Complex (TTMTR)
Object type
Payload
Rocket body
Debris
Shape & HBR
Unknown
Radar Cross Section
Small (<0.1 m²)

Expand to show TLE details & history
Last TLE update: 1 day ago

TLE from 1 day ago
0 FREGAT DEB
1 45829U 11037BP  25260.01024874  .00063452  00000-0  44728-2 0  9998
2 45829  51.4133  13.6565 1360150 173.4120 188.6844 12.62300914228107
Epoch: 2025-09-17T00:14Z
TLE epoch observation values (Epoch: 2025-09-17T00:14:45.491Z)
Latitude
0.00004°
Longitude
13.77465°
Altitude
2,464.431 km
Speed
6.247 km/s
True Right ascension
00h 54m 37s
True Declination
0° 00' 00"
Sunlit
Object was in full shadow at epoch
Visualization orbit readout
Latitude
Unknown
Longitude
Unknown
Altitude
Unknown
Speed
Unknown
Apparent Right ascension
Unknown
Apparent Declination
Unknown
Sunlit
N/A
Visualization observer readout
Local Sidereal Time
17:00:51
Azimuth
Unknown
Elevation
Unknown
Doppler factor
Unknown
Orbital elements
Apogee altitude
2,473.793 km
Perigee altitude
354.111 km
Semi-major axis
7,792.089 km
Eccentricity
0.13602
Inclination
51.4133°
RAAN
13.6565°
Arg. of periapsis
173.412°
True anomaly
186.67153°
Mean anomaly
188.6844°
Eccentric anomaly
187.64733°
Mean motion
3.15546 °/min
Orbital period
114.09 mins
BSTAR
0.0044728
Loading maneuver chart data...
Computing Atmospheric mass density...
Loading historical data...
Loading historical data...
Loading historical data...
Loading historical data...
Loading historical data...
Loading historical data...
Loading historical data...

Documentation

Showing up to 5 results
|